N4NVD-13 Weather Reports


Display with metric or nautical units.
time (UTC)temp
F
wind
direction
speed
MPH
gust
MPH
rain 1hr
in
rain 24hr
in
rain mn
in
humidity
%
barometer
mb
20260508205033 80 153 4.0 5.0 0.00 0.00 0.00 83 1009.2
20260508204529 81 120 0.0 2.0 0.00 0.00 0.00 82 1009.2
20260508204025 80 78 3.0 3.0 0.00 0.00 0.00 83 1009.3
20260508203521 80 110 2.0 3.0 0.00 0.00 0.00 84 1009.4
20260508203018 78 195 1.0 4.0 0.00 0.00 0.00 85 1009.3
20260508202515 78 98 1.0 5.0 0.00 0.00 0.00 84 1009.4
20260508202012 78 83 1.0 3.0 0.00 0.00 0.00 85 1009.6
20260508201508 78 73 3.0 5.0 0.00 0.00 0.00 85 1009.4
20260508201005 78 157 1.0 4.0 0.00 0.00 0.00 86 1009.5
20260508200502 78 39 4.0 5.0 0.00 0.00 0.00 86 1009.8
20260508195956 78 70 2.0 4.0 0.00 0.00 0.00 85 1009.8
20260508195454 77 106 0.0 4.0 0.00 0.00 0.00 85 1009.7
20260508194950 77 97 3.0 5.0 0.00 0.00 0.00 85 1010.0
20260508194448 77 65 2.0 4.0 0.00 0.00 0.00 85 1010.1
20260508193944 78 158 3.0 4.0 0.00 0.00 0.00 83 1010.2
20260508193441 78 225 2.0 4.0 0.00 0.00 0.00 84 1009.9
20260508192938 78 65 2.0 3.0 0.00 0.00 0.00 85 1009.8
20260508192435 77 151 0.0 3.0 0.00 0.00 0.00 84 1010.1
20260508191931 78 85 4.0 5.0 0.00 0.00 0.00 86 1010.1
20260508191429 76 221 0.0 4.0 0.00 0.00 0.00 86 1010.3
20260508190925 76 63 5.0 8.0 0.00 0.00 0.00 87 1010.4
20260508190423 77 147 2.0 9.0 0.00 0.00 0.00 85 1010.4
20260508185919 77 160 0.0 4.0 0.00 0.00 0.00 85 1010.4
20260508185417 76 104 3.0 5.0 0.00 0.00 0.00 87 1010.7
20260508184914 77 94 5.0 7.0 0.00 0.00 0.00 86 1010.6
20260508184411 76 90 0.0 5.0 0.00 0.00 0.00 87 1010.9
20260508183907 75 327 3.0 5.0 0.00 0.00 0.00 86 1010.5
20260508183404 76 72 3.0 7.0 0.00 0.00 0.00 85 1010.7
20260508182859 75 0 2.0 5.0 0.00 0.00 0.00 87 1010.7
20260508182356 76 28 3.0 4.0 0.00 0.00 0.00 87 1011.0
20260508181847 75 90 2.0 5.0 0.00 0.00 0.00 86 1011.1
20260508181344 74 145 1.0 6.0 0.00 0.00 0.00 88 1011.2
20260508180841 75 160 0.0 4.0 0.00 0.00 0.00 85 1011.2
20260508180337 74 35 1.0 4.0 0.00 0.00 0.00 88 1011.5
20260508175833 74 151 5.0 5.0 0.00 0.00 0.00 87 1011.3
20260508175330 74 101 3.0 7.0 0.00 0.00 0.00 87 1011.4
20260508174829 74 109 3.0 6.0 0.00 0.00 0.00 87 1011.3
20260508174326 73 39 7.0 7.0 0.00 0.00 0.00 89 1011.5
20260508173822 73 62 5.0 8.0 0.00 0.00 0.00 87 1011.4
20260508173319 73 99 3.0 6.0 0.00 0.00 0.00 87 1011.7
20260508172815 72 15 0.0 4.0 0.00 0.00 0.00 88 1011.4
20260508172312 73 157 3.0 6.0 0.00 0.00 0.00 88 1011.6
20260508171809 73 114 0.0 5.0 0.00 0.00 0.00 88 1011.8
20260508171305 71 66 0.0 3.0 0.00 0.00 0.00 90 1011.7
20260508170802 71 131 0.0 5.0 0.00 0.00 0.00 92 1011.6
20260508170300 71 98 4.0 6.0 0.00 0.00 0.00 90 1012.1
20260508165756 71 152 2.0 4.0 0.00 0.00 0.00 91 1012.1
20260508165253 71 23 3.0 4.0 0.00 0.00 0.00 88 1012.2
20260508164749 71 45 0.0 4.0 0.00 0.00 0.00 90 1012.2
20260508164246 70 66 4.0 4.0 0.00 0.00 0.00 91 1012.2
20260508163744 69 75 4.0 5.0 0.00 0.00 0.00 91 1012.0
20260508163242 69 71 5.0 7.0 0.00 0.00 0.00 91 1012.1
20260508162737 70 66 3.0 5.0 0.00 0.00 0.00 91 1012.0
20260508162234 69 106 5.0 7.0 0.00 0.00 0.00 91 1011.7
20260508161731 69 75 3.0 7.0 0.00 0.00 0.00 92 1012.0
20260508161228 69 59 4.0 5.0 0.00 0.00 0.00 91 1012.0
20260508160726 69 71 6.0 9.0 0.00 0.00 0.00 91 1012.3
20260508160225 69 77 2.0 6.0 0.00 0.00 0.00 92 1012.0
20260508155721 68 39 3.0 6.0 0.00 0.00 0.00 92 1012.1
20260508155218 68 90 1.0 10.0 0.00 0.00 0.00 92 1012.4
20260508154714 68 87 3.0 9.0 0.00 0.00 0.00 92 1012.4
20260508154212 68 22 2.0 8.0 0.00 0.00 0.00 92 1012.2
20260508153708 68 352 2.0 5.0 0.00 0.00 0.00 93 1012.4
20260508153206 67 52 5.0 8.0 0.00 0.00 0.00 92 1012.5
20260508152702 67 79 4.0 8.0 0.00 0.00 0.00 92 1012.3
20260508152158 67 70 5.0 9.0 0.00 0.00 0.00 92 1012.7
20260508151654 67 50 7.0 9.0 0.00 0.00 0.00 92 1013.1
20260508151151 67 19 6.0 7.0 0.00 0.00 0.00 92 1013.0
20260508150648 67 67 5.0 5.0 0.00 0.00 0.00 92 1013.0
20260508150145 68 97 3.0 7.0 0.00 0.00 0.00 92 1012.6
20260508145641 67 103 0.0 5.0 0.00 0.00 0.00 92 1013.0
20260508145137 68 146 0.0 3.0 0.00 0.00 0.00 91 1012.7
20260508144635 68 75 3.0 3.0 0.00 0.00 0.00 92 1013.0
20260508144132 67 101 2.0 5.0 0.00 0.00 0.00 91 1012.9
20260508143630 67 114 2.0 5.0 0.00 0.00 0.00 91 1012.5
20260508143126 66 90 2.0 3.0 0.00 0.00 0.00 91 1012.7
20260508142623 66 82 3.0 4.0 0.00 0.00 0.00 92 1012.7
20260508142120 66 95 0.0 4.0 0.00 0.00 0.00 92 1012.9
20260508141616 66 137 4.0 5.0 0.00 0.00 0.00 92 1013.1
20260508141114 66 86 3.0 6.0 0.00 0.00 0.00 92 1012.7
20260508140611 66 47 6.0 6.0 0.00 0.00 0.00 91 1012.9
20260508140108 66 107 2.0 3.0 0.00 0.00 0.00 92 1012.9
20260508135603 65 98 4.0 4.0 0.00 0.00 0.00 92 1013.1
20260508135059 65 85 3.0 6.0 0.00 0.00 0.00 92 1012.9
20260508134556 64 63 3.0 4.0 0.00 0.00 0.00 93 1012.7
20260508134053 64 85 2.0 4.0 0.00 0.00 0.00 93 1012.6
20260508133550 64 105 2.0 7.0 0.00 0.00 0.00 93 1012.9
20260508133047 64 68 4.0 7.0 0.00 0.00 0.00 93 1012.9
20260508132545 64 93 3.0 6.0 0.00 0.00 0.00 93 1012.7
20260508132041 64 85 2.0 5.0 0.00 0.00 0.00 93 1012.9
20260508131537 63 68 0.0 5.0 0.00 0.00 0.00 93 1012.9
20260508131034 63 57 3.0 6.0 0.00 0.00 0.00 93 1013.0
20260508130531 63 73 6.0 6.0 0.00 0.00 0.00 92 1013.4
20260508130027 63 98 2.0 4.0 0.00 0.00 0.00 93 1013.3
20260508125523 63 354 1.0 4.0 0.00 0.00 0.00 93 1013.0
20260508125021 63 351 3.0 4.0 0.00 0.00 0.00 93 1013.3
20260508124519 63 331 0.0 3.0 0.00 0.00 0.00 93 1013.5
20260508124015 63 27 4.0 5.0 0.00 0.00 0.00 93 1013.2
20260508123514 63 77 2.0 3.0 0.00 0.00 0.00 93 1013.4
20260508123010 63 353 2.0 7.0 0.00 0.00 0.00 93 1013.4
20260508122508 63 36 0.0 5.0 0.00 0.00 0.00 93 1013.4
20260508122004 63 13 5.0 5.0 0.00 0.00 0.00 93 1013.5
20260508121502 63 17 2.0 3.0 0.00 0.00 0.00 93 1013.7
20260508121000 63 52 2.0 3.0 0.00 0.00 0.00 93 1013.7
20260508120457 63 347 3.0 3.0 0.00 0.00 0.00 93 1013.4
20260508115955 63 20 0.0 3.0 0.00 0.00 0.00 93 1013.5
20260508115453 63 352 0.0 3.0 0.00 0.00 0.00 93 1013.4
20260508114949 63 27 3.0 3.0 0.00 0.00 0.00 93 1013.3
20260508114446 63 74 2.0 3.0 0.00 0.00 0.00 93 1013.2
20260508113942 63 19 2.0 3.0 0.00 0.00 0.00 93 1013.3
20260508113440 63 42 3.0 5.0 0.00 0.00 0.00 93 1013.6
20260508112937 63 18 2.0 3.0 0.00 0.00 0.00 93 1013.4
20260508112434 63 10 3.0 3.0 0.00 0.00 0.00 93 1013.3
20260508111930 63 0 0.0 3.0 0.00 0.00 0.00 93 1013.3
20260508111428 63 29 1.0 2.0 0.00 0.00 0.00 93 1013.3
20260508110925 63 71 0.0 3.0 0.00 0.00 0.00 93 1012.5
20260508110423 63 18 2.0 3.0 0.00 0.00 0.00 93 1012.4
20260508105922 63 26 0.0 3.0 0.00 0.00 0.00 93 1013.0
20260508105419 63 18 1.0 4.0 0.00 0.00 0.00 93 1013.0
20260508104916 63 261 0.0 2.0 0.00 0.00 0.00 93 1013.0
20260508104413 63 71 1.0 3.0 0.00 0.00 0.00 93 1013.1
20260508103910 63 0 0.0 2.0 0.00 0.00 0.00 93 1013.0
20260508103407 63 352 0.0 3.0 0.00 0.00 0.00 93 1013.2
20260508102904 63 14 2.0 5.0 0.00 0.00 0.00 93 1013.4
20260508102403 63 32 0.0 2.0 0.00 0.00 0.00 92 1013.5
20260508101859 63 14 2.0 3.0 0.00 0.00 0.00 92 1013.4
20260508101356 63 23 3.0 3.0 0.00 0.00 0.00 92 1013.2
20260508100854 63 7 1.0 2.0 0.00 0.00 0.00 92 1013.1
20260508100353 63 0 0.0 2.0 0.00 0.00 0.00 92 1013.2
20260508095848 63 0 0.0 4.0 0.00 0.00 0.00 92 1013.0
20260508095346 63 30 3.0 4.0 0.00 0.00 0.00 92 1013.0
20260508094842 63 48 2.0 6.0 0.00 0.00 0.00 92 1012.9
20260508094339 63 73 3.0 5.0 0.00 0.00 0.00 92 1013.0
20260508093836 63 102 3.0 5.0 0.00 0.00 0.00 91 1013.0
20260508093334 63 72 5.0 5.0 0.00 0.00 0.00 91 1013.0
20260508092831 63 90 0.0 5.0 0.00 0.00 0.00 91 1013.1
20260508092329 63 36 2.0 3.0 0.00 0.00 0.00 91 1013.1
20260508091827 63 38 2.0 3.0 0.00 0.00 0.00 91 1013.2
20260508091323 63 75 2.0 3.0 0.00 0.00 0.00 91 1013.2
20260508090821 63 74 2.0 4.0 0.00 0.00 0.00 91 1013.2
20260508090320 63 2 3.0 5.0 0.00 0.00 0.00 91 1013.2
20260508085814 63 52 2.0 5.0 0.00 0.00 0.00 91 1013.0
20260508085312 63 354 3.0 5.0 0.00 0.00 0.00 91 1013.0
20260508084808 63 8 0.0 4.0 0.00 0.00 0.00 91 1012.7
20260508084305 63 71 3.0 4.0 0.00 0.00 0.00 91 1012.9
20260508083803 63 48 2.0 5.0 0.00 0.00 0.00 91 1012.6
20260508083300 63 48 2.0 4.0 0.00 0.00 0.00 91 1012.6
20260508082759 62 71 2.0 4.0 0.00 0.00 0.00 91 1012.7
20260508082258 62 353 2.0 6.0 0.00 0.00 0.00 91 1012.6
20260508081755 62 0 3.0 4.0 0.00 0.00 0.00 92 1012.9
20260508081251 62 20 4.0 6.0 0.00 0.00 0.00 92 1012.9
20260508080748 62 28 0.0 6.0 0.00 0.00 0.00 92 1012.2
20260508080247 62 70 2.0 5.0 0.00 0.00 0.00 92 1012.6
20260508075743 62 59 5.0 5.0 0.00 0.00 0.00 92 1013.0
20260508075239 62 90 1.0 3.0 0.00 0.00 0.00 92 1013.1
20260508074737 62 99 2.0 5.0 0.00 0.00 0.00 92 1012.9
20260508074235 62 38 0.0 5.0 0.00 0.00 0.00 92 1013.1
20260508073731 62 0 0.0 5.0 0.00 0.00 0.00 92 1013.5
20260508073230 62 35 1.0 2.0 0.00 0.00 0.00 92 1013.6
20260508072725 62 350 2.0 4.0 0.00 0.00 0.00 92 1013.8
20260508072222 62 5 1.0 2.0 0.00 0.00 0.00 92 1013.7
20260508071719 62 32 0.0 4.0 0.00 0.00 0.00 92 1013.7
20260508071218 62 54 0.0 3.0 0.00 0.00 0.00 92 1013.7
20260508070715 62 22 2.0 4.0 0.00 0.00 0.00 92 1014.1
20260508070214 62 90 0.0 2.0 0.00 0.00 0.00 92 1013.8
20260508065710 62 49 3.0 4.0 0.00 0.00 0.00 92 1013.9
20260508065209 62 90 2.0 4.0 0.00 0.00 0.00 91 1013.9
20260508064706 62 30 3.0 3.0 0.00 0.00 0.00 92 1014.3
20260508064204 62 36 2.0 4.0 0.00 0.00 0.00 92 1014.0
20260508063701 62 36 2.0 3.0 0.00 0.00 0.00 92 1014.1
20260508063159 62 53 0.0 3.0 0.00 0.00 0.00 92 1013.9
20260508062656 62 0 2.0 4.0 0.00 0.00 0.00 92 1013.8
20260508062153 62 53 4.0 4.0 0.00 0.00 0.00 92 1013.8
20260508061650 62 53 3.0 6.0 0.00 0.00 0.00 92 1013.8
20260508061147 62 14 1.0 3.0 0.00 0.00 0.00 92 1013.8
20260508060644 62 45 3.0 5.0 0.00 0.00 0.00 92 1013.9
20260508060141 62 30 2.0 4.0 0.00 0.00 0.00 92 1013.6
20260508055637 62 334 2.0 4.0 0.00 0.00 0.00 92 1013.6
20260508055134 62 8 5.0 5.0 0.00 0.00 0.00 92 1013.6
20260508054630 62 54 1.0 5.0 0.00 0.00 0.00 92 1013.7
20260508054128 62 51 3.0 4.0 0.00 0.00 0.00 92 1013.6
20260508053624 62 3 2.0 5.0 0.00 0.00 0.00 92 1013.7
20260508053122 62 9 2.0 4.0 0.00 0.00 0.00 92 1013.9
20260508052619 62 63 3.0 3.0 0.00 0.00 0.00 92 1013.9
20260508052116 62 40 3.0 3.0 0.00 0.00 0.00 92 1013.6
20260508051612 62 0 1.0 3.0 0.00 0.00 0.00 92 1013.8
20260508051108 62 77 5.0 6.0 0.00 0.00 0.00 92 1013.6
20260508050604 62 75 5.0 6.0 0.00 0.00 0.00 92 1013.6
20260508045558 62 8 0.0 3.0 0.00 0.00 0.00 92 1014.3
20260508045056 62 66 1.0 6.0 0.00 0.00 0.00 92 1013.4
20260508044553 62 61 2.0 4.0 0.00 0.00 0.00 92 1014.5
20260508044049 62 18 0.0 3.0 0.00 0.00 0.00 93 1014.9
20260508043545 62 297 1.0 2.0 0.00 0.00 0.00 93 1014.8
20260508043043 62 300 0.0 3.0 0.00 0.00 0.00 92 1014.4
20260508042539 62 29 0.0 0.0 0.00 0.00 0.00 92 1014.4
20260508042037 62 29 0.0 2.0 0.00 0.00 0.00 91 1014.2
20260508041533 62 74 0.0 0.0 0.00 0.00 0.00 91 1014.3
20260508041030 62 74 0.0 2.0 0.00 0.00 0.00 91 1014.2
20260508040527 62 65 2.0 4.0 0.00 0.00 0.00 90 1014.1
20260508040024 62 27 4.0 4.0 0.00 0.00 0.00 91 1014.1
20260508035521 62 8 0.0 2.0 0.00 0.00 0.00 91 1014.2
20260508035018 62 279 0.0 0.0 0.00 0.00 0.00 91 1014.2
20260508034515 62 15 1.0 2.0 0.00 0.00 0.00 91 1014.2
20260508034012 62 348 0.0 2.0 0.00 0.00 0.00 91 1014.1
20260508033510 62 26 1.0 2.0 0.00 0.00 0.00 91 1013.8
20260508033008 62 23 0.0 2.0 0.00 0.00 0.00 90 1014.1
20260508032504 62 340 0.0 0.0 0.00 0.00 0.00 90 1013.8
20260508032002 62 8 3.0 3.0 0.00 0.00 0.00 89 1013.4
20260508031459 62 277 0.0 1.0 0.00 0.00 0.00 89 1013.5
20260508030954 62 41 2.0 4.0 0.00 0.00 0.00 89 1013.2
20260508030451 62 18 2.0 3.0 0.00 0.00 0.00 89 1013.2
20260508025949 62 0 0.0 3.0 0.00 0.00 0.00 89 1013.1
20260508025445 63 19 2.0 2.0 0.00 0.00 0.00 89 1013.4
20260508024943 63 23 1.0 3.0 0.00 0.00 0.00 88 1013.2
20260508024438 63 114 3.0 5.0 0.00 0.00 0.00 88 1013.1
20260508023935 63 65 2.0 6.0 0.00 0.00 0.00 88 1013.1
20260508023432 63 83 1.0 3.0 0.00 0.00 0.00 88 1013.3
20260508022929 63 74 1.0 3.0 0.00 0.00 0.00 88 1013.5
20260508022425 63 84 2.0 3.0 0.00 0.00 0.00 88 1013.5
20260508021922 63 90 1.0 1.0 0.00 0.00 0.00 88 1014.2
20260508021418 63 14 0.0 2.0 0.00 0.00 0.00 88 1014.0
20260508020914 63 81 0.0 3.0 0.00 0.00 0.00 87 1013.6
20260508020412 63 26 0.0 2.0 0.00 0.00 0.00 87 1013.5
20260508015909 63 71 1.0 4.0 0.00 0.00 0.00 87 1013.3
20260508015407 63 90 1.0 5.0 0.00 0.00 0.00 87 1013.3
20260508014903 63 13 3.0 3.0 0.00 0.00 0.00 87 1013.3
20260508014400 63 90 2.0 3.0 0.00 0.00 0.00 86 1013.4
20260508013855 64 40 2.0 2.0 0.00 0.00 0.00 87 1013.7
20260508013352 64 352 0.0 2.0 0.00 0.00 0.00 86 1013.9
20260508012849 64 0 0.0 2.0 0.00 0.00 0.00 85 1014.1
20260508012346 64 77 0.0 3.0 0.00 0.00 0.00 85 1013.8
20260508011844 64 90 2.0 5.0 0.00 0.00 0.00 84 1013.7
20260508011342 64 84 2.0 3.0 0.00 0.00 0.00 84 1014.1
20260508010838 64 85 4.0 4.0 0.00 0.00 0.00 84 1013.9
20260508010336 64 18 3.0 5.0 0.00 0.00 0.00 84 1014.3
20260508005833 64 53 2.0 2.0 0.00 0.00 0.00 84 1014.6
20260508005330 64 38 2.0 3.0 0.00 0.00 0.00 83 1014.3
20260508004826 65 0 1.0 5.0 0.00 0.00 0.00 83 1014.1
20260508004322 65 292 2.0 4.0 0.00 0.00 0.00 83 1014.0
20260508003813 65 8 4.0 4.0 0.00 0.00 0.00 82 1013.9
20260508003311 65 345 2.0 4.0 0.00 0.00 0.00 82 1014.1
20260508002807 66 79 3.0 4.0 0.00 0.00 0.00 81 1014.0
20260508002306 65 64 3.0 9.0 0.00 0.00 0.00 81 1013.8
20260508001800 65 80 5.0 8.0 0.00 0.00 0.00 81 1014.1
20260508001256 66 54 8.0 8.0 0.00 0.00 0.00 80 1014.4
20260508000752 66 47 3.0 6.0 0.00 0.00 0.00 80 1014.3
20260508000250 66 32 4.0 10.0 0.00 0.00 0.00 80 1014.1
20260507235746 66 69 8.0 8.0 0.00 0.00 0.00 80 1014.3
20260507235244 66 353 2.0 7.0 0.00 0.00 0.00 80 1014.5
20260507234740 66 72 4.0 7.0 0.00 0.00 0.00 79 1014.6
20260507234237 66 25 3.0 6.0 0.00 0.00 0.00 80 1014.6
20260507233733 66 26 2.0 5.0 0.00 0.00 0.00 80 1014.5
20260507233231 66 17 2.0 5.0 0.00 0.00 0.00 79 1014.8
20260507232728 67 2 3.0 5.0 0.00 0.00 0.00 78 1014.5
20260507232225 67 14 3.0 4.0 0.00 0.00 0.00 78 1014.4
20260507231722 67 0 2.0 5.0 0.00 0.00 0.00 78 1014.7
20260507231219 67 37 2.0 10.0 0.00 0.00 0.00 78 1014.9
20260507230715 67 43 5.0 11.0 0.00 0.00 0.00 77 1015.2
20260507230214 67 52 2.0 6.0 0.00 0.00 0.00 78 1014.4
20260507225712 67 90 1.0 8.0 0.00 0.00 0.00 79 1014.4
20260507225209 67 34 5.0 9.0 0.00 0.00 0.00 77 1014.6
20260507224705 68 27 4.0 7.0 0.00 0.00 0.00 76 1014.5
20260507224202 68 335 3.0 4.0 0.00 0.00 0.00 79 1014.7
20260507223658 67 349 3.0 9.0 0.00 0.00 0.00 78 1014.6
20260507223155 67 0 2.0 12.0 0.00 0.00 0.00 79 1014.5
20260507222652 67 17 4.0 8.0 0.00 0.00 0.00 78 1014.7
20260507222148 67 350 2.0 9.0 0.00 0.00 0.00 78 1014.8
20260507221644 68 40 5.0 7.0 0.00 0.00 0.00 78 1014.8
20260507221141 67 22 3.0 7.0 0.00 0.00 0.00 77 1014.9
20260507220638 67 11 3.0 5.0 0.00 0.00 0.00 78 1014.7
20260507220136 67 349 3.0 7.0 0.00 0.00 0.00 78 1014.7
20260507215632 68 3 2.0 4.0 0.00 0.00 0.00 77 1015.1
20260507215129 68 50 3.0 7.0 0.00 0.00 0.00 76 1014.9
20260507214626 68 301 0.0 11.0 0.00 0.00 0.00 78 1014.6
20260507214123 69 104 4.0 4.0 0.00 0.00 0.00 77 1014.8
20260507213619 67 0 0.0 15.0 0.00 0.00 0.00 77 1014.8
20260507213116 67 289 3.0 5.0 0.00 0.00 0.00 77 1014.6
20260507212612 66 331 2.0 13.0 0.00 0.00 0.00 79 1014.5
20260507212109 66 17 4.0 10.0 0.00 0.00 0.00 78 1014.7
20260507211606 66 50 7.0 10.0 0.00 0.00 0.00 78 1014.9
20260507211101 66 33 2.0 5.0 0.00 0.00 0.00 78 1015.0
20260507210559 66 12 4.0 7.0 0.00 0.00 0.00 77 1014.7
20260507210056 67 33 2.0 5.0 0.00 0.00 0.00 79 1014.6
20260507205552 66 27 4.0 10.0 0.00 0.00 0.00 78 1014.6